Weather Roundup
Issued by NWS

Home | Current Version | Previous Version | Graphics & Text | Print | Product List | Glossary Off
Versions: 1 2 3 4 5 6 7 8 9 10 11 12 13 14 15 16 17 18 19 20 21 22 23 24 25 26 27 28 29 30 31 32 33 34 35 36 37 38 39 40 41 42 43 44 45 46 47 48 49 50

000
NZUS93 KARX 200110
HRRWXR

CURRENT HOURLY OBSERVATIONS ACROSS
MUCH OF THE UPPER MISSISSIPPI VALLEY
NATIONAL WEATHER SERVICE LA CROSSE WI
800 PM CDT TUE AUG 19 2014


...SOUTHEAST MINNESOTA...


CITY           SKY/WX    TMP DP  RH WIND       PRES   REMARKS
ROCHESTER      LGT RAIN  71  64  78 W5        29.79R
ROCHESTER/MAYO CLOUDY    74  61  62 W7        29.78R
WINONA         PTCLDY    73  63  68 CALM      29.75R HAZE
AUSTIN         CLEAR     73  64  73 CALM      29.77S
ALBERT LEA     CLEAR     75  66  73 CALM      29.78R
DODGE CENTER   MOCLDY    70  66  88 CALM      29.78F
PRESTON        MOCLDY    71  66  85 W5        29.78S
OWATONNA       CLEAR     72  66  83 CALM      29.77S
FARIBAULT      CLEAR     73  66  78 CALM      29.77R
$$

...ELSEWHERE IN MINNESOTA...


CITY           SKY/WX    TMP DP  RH WIND       PRES   REMARKS
MINNEAPOLIS    PTCLDY    74  64  71 CALM      29.75R
INTNL FALLS    CLEAR     67  60  78 NE3       29.78S
DULUTH         MOCLDY    66  59  78 NE7       29.78R
RED WING       MOCLDY    73  64  73 CALM      29.74R
REDWOOD FALLS  CLEAR     78  66  66 N3        29.76S
MANKATO        CLEAR     75  63  64 W5        29.76S
WORTHINGTON    CLEAR     77  18  10 SW5       29.82R
FAIRMONT       CLEAR     77  64  65 N3        29.78S
$$

...SOUTHWEST WISCONSIN...


CITY           SKY/WX    TMP DP  RH WIND       PRES   REMARKS
LA CROSSE      PTCLDY    75  64  68 NW3       29.73S
PRAIRIE DU CHI CLEAR     75  62  62 W5        29.75R
BOSCOBEL       CLEAR     76  64  66 CALM      29.74S
LONE ROCK      MOCLDY    79  64  60 NW3       29.74R
PLATTEVILLE    CLEAR     72  65  78 W6        29.77S
FORT MC COY    CLEAR     72  62  71 CALM      29.75S
CAMP DOUGLAS   CLEAR     67  66  96 W2        29.75R
VIROQUA        FAIR      70  64  81 W3        29.77R
WIS DELLS      CLEAR     71  61  71 CALM      29.75R
$$

...ELSEWHERE IN WISCONSIN...


CITY           SKY/WX    TMP DP  RH WIND       PRES   REMARKS
MILWAUKEE      PTCLDY    74  65  73 CALM      29.72R
MADISON        PTCLDY    73  64  73 CALM      29.74R
GREEN BAY      MOCLDY    71  65  81 NW12      29.71R
EAU CLAIRE     CLOUDY    69  66  90 N3        29.74S
BLACK RVR FLS  FAIR      72  64  74 CALM      29.74S
MEDFORD        LGT RAIN  64  63  96 W3        29.77R
WAUSAU         MOCLDY    66  64  93 NW5       29.74R
WIS RAPIDS     PTCLDY    69  62  78 W3        29.75R
MARSHFIELD     CLOUDY    69  63  81 NW7       29.75R
RICE LAKE      CLOUDY    69  65  90 CALM      29.77R
$$

...NORTHEAST IOWA...


CITY           SKY/WX    TMP DP  RH WIND       PRES   REMARKS
WATERLOO       CLEAR     77  65  66 CALM      29.77R
DUBUQUE        CLEAR     73  63  70 W3        29.78R
DECORAH        CLEAR     73  64  73 CALM      29.77R
MASON CITY     PTCLDY    76  67  73 CALM      29.79S
CHARLES CITY   CLEAR     72  68  88 CALM      29.79R
OELWEIN        CLEAR     73  66  78 NW5       29.79R
$$

...ELSEWHERE IN IOWA...


CITY           SKY/WX    TMP DP  RH WIND       PRES   REMARKS
DES MOINES     PTCLDY    81  65  58 W3        29.79R
IOWA CITY      CLEAR     78  65  63 W5        29.78S
FORT DODGE     CLEAR     73  64  73 W3        29.80S
MARSHALLTOWN   CLEAR     75  68  78 SW3       29.78S
CEDAR RAPIDS   CLEAR     75  66  73 NW6       29.77S
$$

...NORTHERN ILLINOIS...


CITY           SKY/WX    TMP DP  RH WIND       PRES   REMARKS
CHICAGO-OHARE  LGT RAIN  76  65  68 W7        29.72R
DUPAGE         PTCLDY    78  65  63 W8        29.73R
CHICAGO-MIDWAY MOCLDY    81  68  64 SW9       29.72R
MOLINE         CLEAR     80  64  58 NW6       29.76R
ROCKFORD       PTCLDY    76  62  62 NW6       29.76R
STERLING       CLEAR     75  64  69 NW7       29.76R
PEORIA         CLEAR     78  70  76 SW5       29.77S
$$

NOTE: "FAIR" INDICATES FEW OR NO CLOUDS BELOW 12,000 FEET WITH NO
SIGNIFICANT WEATHER AND/OR OBSTRUCTIONS TO VISIBILITY. WIND
SPEEDS ARE IN MILES-PER-HOUR.



USA.gov is the U.S. government's official web portal to all federal, state and local government web resources and services.